Orbital Elements at Epoch 2459200.5 (2020-Dec-17.0) TDB
Reference: JPL 22 (heliocentric ecliptic J2000)
Element | Value | Uncertainty (1-sigma) | Units |
e | .1818407615042953 | 3.6476e-08 | |
a | 2.320956589903009 | 8.4592e-09 | au |
q | 1.898912076176634 | 8.2048e-08 | au |
i | 6.039132353500302 | 4.0141e-06 | deg |
node | 256.8342863108237 | 3.552e-05 | deg |
peri | 345.9710397201465 | 3.711e-05 | deg |
M | 186.2964958888446 | 1.2048e-05 | deg |
tp | 2459823.667839549760 (2022-Sep-01.16783955) | 4.4869e-05 | TDB |
period | 1291.513509677704 3.54 | 7.0607e-06 1.933e-08 | d yr |
n | .2787427288235164 | 1.5239e-09 | deg/d |
Q | 2.743001103629385 | 9.9974e-09 | au |
|
| | Orbit Determination Parameters
Additional Information
|